Location: Balzhofen
(48.7131°N, 8.0930°E)
Time: 18:49:37
(UTC+00:00)

Daily predictions for brighter satellites

Satellite Brightness Start Highest point End
(mag) Time Altitude Azimuth Time Altitude Azimuth Time Altitude Azimuth
MOS 1 Rocket 3.8 17:43:33 10° N 17:48:44 80° WNW 17:54:07 10° SSW
Gbstr 26 Del rocket 3.5 17:45:38 10° WNW 17:49:55 60° N 17:55:10 10° E
Cosmos 2333 Rocket 2.7 17:48:31 10° S 17:53:42 38° ESE 17:58:57 10° NE
Abrixas rocket 1.8 17:51:26 10° W 17:53:53 58° SSW 17:56:19 10° ESE
Cosmos 1295 Rocket 4.5 17:49:19 10° S 17:55:31 76° E 18:01:41 10° NNE
Meteor 2-4 Rocket 3.8 17:52:09 10° N 17:58:04 78° ENE 18:04:00 10° SSE
Cosmos 2322 Rocket 2.9 17:54:16 10° SW 17:59:47 58° WNW 18:05:22 10° NNE
Helios 1A Rocket 3.3 17:56:27 10° SE 18:00:17 43° ENE 18:04:07 10° N
Nadezhda 3 Rocket 4.3 17:54:19 10° NNW 18:00:43 78° W 18:07:04 10° S
Lacrosse 4 Rocket 2.0 17:56:49 10° S 18:00:55 39° ESE 18:05:06 10° NE
CZ-2D R/B 4.5 17:57:42 10° S 18:01:22 46° W 18:05:06 10° NNW
GP-B 3.4 17:57:56 10° SSE 18:02:10 45° E 18:06:25 10° N
ARGOS 3.2 17:59:06 10° SSE 18:04:28 65° ENE 18:09:51 10° N
ERBS 4.3 18:03:21 10° WNW 18:05:56 20° N 18:08:31 10° NE
Cosmos 1869 Rocket 4.1 18:04:38 10° SSE 18:08:38 36° E 18:12:42 10° NNE
CZ-4 R/B 1.5 18:05:58 10° S 18:09:50 75° WSW 18:13:50 10° NNW
CZ-4B R/B 2.1 18:07:02 10° N 18:10:02 52° WNW 18:13:05 10° SSW
Cosmos 2219 Rocket 2.5 18:04:53 10° S 18:10:09 44° ESE 18:15:28 10° NE
Cosmos 2154 Rocket 4.4 18:06:42 10° SSW 18:12:52 71° W 18:19:06 10° N
FALCON 9 DEB 2.8 18:10:59 10° WNW 18:14:10 79° NNE 18:16:47 14° ESE
ERS-2 2.3 18:11:02 10° NNE 18:14:37 50° ESE 18:18:10 10° S
CZ-2C R/B 2.9 18:09:43 10° NNE 18:14:57 45° E 18:20:02 10° S
Cosmos 1689 Rocket 2.0 18:13:20 10° NNE 18:16:12 54° E 18:19:02 10° S
Cosmos 1238 Rocket 3.8 18:13:46 10° SE 18:16:49 21° E 18:19:32 10° NE
Cosmos 1378 3.8 18:14:57 10° N 18:18:22 32° ENE 18:21:43 10° SE
USA 305 3.4 18:15:08 10° WNW 18:19:20 50° NNE 18:22:40 15° E
SL-08 RB Rocket 3.7 18:14:54 10° SSE 18:19:22 61° ENE 18:23:55 10° N
H-2A R/B 4.4 18:16:59 10° N 18:20:24 26° WNW 18:23:51 10° WSW
CREW DRAGON DEMO-1 DEB 3.7 18:20:09 10° SSW 18:22:39 29° SSE 18:23:59 19° E
NOSS 3-2 (A) 4.0 18:17:47 10° S 18:22:41 32° ESE 18:28:09 10° NE
FALCON 9 DEB 2.9 18:20:26 10° WNW 18:23:38 79° NNE 18:25:51 18° ESE
HJ-1C 3.3 18:20:38 10° SSE 18:23:56 89° W 18:27:15 10° NNW
COSMOS 2428 2.9 18:19:26 10° S 18:24:52 48° ESE 18:30:20 10° NE
Cosmos 1733 Rocket 4.3 18:22:59 10° SE 18:26:06 20° E 18:29:15 10° NE
SL-16 R/B 4.0 18:23:17 10° WSW 18:28:21 33° NW 18:33:27 10° NNE
USA 307 3.3 18:28:54 10° WNW 18:33:07 54° NNE 18:35:52 20° E
Cosmos 2369 Rocket 4.3 18:31:42 10° N 18:33:23 11° NNE 18:35:03 10° NE
SL-8 Rocket 3.9 18:27:48 10° S 18:33:59 73° E 18:40:10 10° NNE
USA 306 3.2 18:30:10 10° WNW 18:34:25 55° NNE 18:37:06 21° E
CENTAUR R/B 3.3 18:29:40 10° SSE 18:34:29 27° ESE 18:40:00 10° ENE
ATLAS CENTAUR R/B 2.9 18:32:58 10° WSW 18:36:13 30° NW 18:39:33 10° NNE
NOSS 0 Rocket 4.5 18:30:57 10° SSE 18:36:20 33° ESE 18:41:45 10° NE
Cosmos 1898 Rocket 4.4 18:31:56 10° N 18:36:32 30° NE 18:39:11 20° E
Cosmos 1066 Rocket 4.3 18:31:02 10° N 18:36:47 64° ENE 18:42:35 10° SSE
Cosmos 1743 3.6 18:37:19 10° SSE 18:40:36 27° E 18:43:55 10° NNE
Cosmos 1666 3.0 18:38:39 10° SSW 18:42:21 67° WNW 18:46:06 10° N
USA 308 3.1 18:39:44 10° WNW 18:43:58 59° NNE 18:46:15 25° E
CSL-04 Rocket 3.9 18:39:56 10° S 18:45:27 77° WSW 18:50:58 10° NNW
Cosmos 2322 3.8 18:40:03 10° SSW 18:45:46 84° WNW 18:51:32 10° NNE
Meteor 1-23 Rocket 4.2 18:41:38 10° N 18:47:12 60° ENE 18:52:48 10° SSE
Okean-O 4.1 18:44:35 10° SSW 18:48:44 39° W 18:52:56 10° NNW
BREEZE-M DEB (TANK) 3.5 18:47:50 10° SSW 18:49:59 31° SSE 18:50:06 31° SE
ASTEX 1 3.5 18:46:34 10° NNE 18:51:19 49° E 18:56:02 10° SSE
Cosmos 2366 rocket 4.0 18:45:55 10° S 18:52:14 81° E 18:58:38 10° N
H-2A R/B 3.7 18:47:48 10° SSW 18:52:51 39° W 18:57:55 10° NNW
Cosmos 1674 Rocket 4.3 18:50:39 10° N 18:54:31 31° ENE 18:55:15 30° E
SJ-6B 2.9 18:52:44 18° SSE 18:55:35 57° ENE 18:59:31 10° N
Cosmos 990 Rocket 4.3 18:52:11 10° NNW 18:57:13 47° ENE 18:59:40 27° ESE
Cosmos 2221 Rocket 3.5 18:54:14 10° N 18:58:39 64° ENE 19:02:10 16° SSE
Ariane Rocket 3.1 18:55:34 18° SE 18:59:10 54° ENE 19:04:07 10° N
USA 186 1.0 18:59:36 67° SSE 18:59:53 90° NNE 19:02:32 10° NNW
Cosmos 1763 Rocket 4.2 18:57:44 10° SSE 19:02:21 31° E 19:06:58 10° NE
OBJECT-B 0.8 19:02:09 51° ESE 19:02:31 54° ENE 19:05:41 10° N
NOSS 3-2 (C) 3.8 18:59:15 10° S 19:04:19 36° ESE 19:08:11 18° ENE
Meteor 1-11 Rocket 3.8 19:00:33 10° SSW 19:06:14 81° WNW 19:11:50 10° N
Cosmos 1378 Rocket 4.1 19:04:53 10° N 19:09:04 37° ENE 19:09:21 37° E
Cosmos 2360 Rocket 3.9 19:05:23 10° WSW 19:10:28 33° NW 19:15:36 10° NNE
FALCON 9 DEB 3.6 19:10:18 10° WNW 19:13:22 44° SW 19:13:45 42° S
Cosmos 468 Rocket 4.4 19:09:03 10° S 19:13:57 40° ESE 19:18:52 10° NE
Cosmos 1943 Rocket 3.4 19:09:47 10° N 19:14:23 24° NE 19:15:25 23° ENE
SJ 16-02 1.6 19:11:56 10° NNW 19:16:20 69° WSW 19:19:19 20° S
Cosmos 1821 Rocket 4.0 19:10:27 10° SSE 19:16:29 56° E 19:22:29 10° NNE
Cosmos 1727 Rocket 4.0 19:10:23 10° N 19:16:35 84° W 19:22:49 10° S
Cosmos 2237 Rocket 2.3 19:11:49 10° S 19:17:16 49° ESE 19:22:45 10° NE
DMSP B5D2-2 4.1 19:12:07 10° NNE 19:17:23 85° WNW 19:22:36 10° SSW
Cosmos 1544 2.9 19:14:39 10° S 19:18:18 77° E 19:21:59 10° NNE
Cosmos 2278 Rocket 2.2 19:12:55 10° NNW 19:18:38 84° WSW 19:22:11 24° SSE
MOS 1 4.2 19:15:42 18° SSE 19:20:02 80° ENE 19:25:44 10° NNW
Cosmos 1536 3.5 19:16:50 10° SSW 19:20:45 55° WNW 19:24:40 10° N
FALCON 9 DEB 4.1 19:18:16 10° WNW 19:21:11 34° SW 19:21:22 34° SSW
Cosmos 1000 Rocket 4.5 19:15:00 10° N 19:21:17 66° ENE 19:25:17 24° SSE
SL-4 R/B 3.9 19:19:20 10° W 19:21:39 17° SW 19:22:57 14° SSW
USA 81 4.0 19:17:04 10° S 19:22:15 62° E 19:27:27 10° NNE
SeaSat 1 2.4 19:19:10 10° NNE 19:24:08 85° WNW 19:29:04 10° SSW
SPOT 3 Rocket 3.8 19:24:25 43° E 19:25:18 48° ENE 19:30:19 10° N
Abrixas rocket 4.4 19:25:58 10° WSW 19:26:46 14° SW 19:26:46 14° SW
Cosmos 1934 Rocket 4.2 19:30:06 41° E 19:30:24 41° E 19:36:07 10° NNE
Resurs 01 Rocket 2.0 19:31:41 46° NE 19:31:41 46° NE 19:35:33 10° N
SME Rocket 3.9 19:24:26 10° NNE 19:32:01 87° ESE 19:36:57 10° SSW
Meteor 2-20 Rocket 4.3 19:26:35 10° N 19:32:43 88° ENE 19:37:09 20° S
USA 234 3.4 19:33:09 38° E 19:35:06 49° SE 19:41:23 10° SSW
Gbstr 26 Del rocket 3.5 19:32:17 10° WNW 19:37:04 77° SSW 19:38:19 53° SE
Cosmos 2333 Rocket 3.4 19:32:32 10° WSW 19:37:56 42° NW 19:43:24 10° NNE
Cosmos 1937 Rocket 3.4 19:34:13 10° NNW 19:39:21 64° ENE 19:39:50 60° E
Lacrosse 4 Rocket 3.3 19:35:40 10° WSW 19:39:41 32° NW 19:43:46 10° NNE
Cosmos 2123 Rocket 4.0 19:33:38 10° N 19:39:48 57° ENE 19:41:02 49° ESE
ERBS 4.4 19:40:14 10° NW 19:42:16 21° N 19:42:16 21° N
USA 238 DEB 3.5 19:37:31 10° SW 19:44:06 84° SE 19:51:03 10° NE
USA 238 3.5 19:37:38 10° SW 19:44:12 83° SE 19:51:10 10° NE
Resurs 1-3 3.6 19:45:27 63° SSW 19:46:06 77° WSW 19:50:31 10° NNW
Cosmos 1842 4.0 19:42:26 10° N 19:45:12 43° N 19:45:12 43° N
Cosmos 2219 Rocket 3.6 19:49:04 10° WSW 19:54:13 36° NW 19:59:25 10° NNE
CZ-2C R/B 4.5 19:50:20 10° N 19:55:04 31° WNW 19:59:41 10° WSW
Terra 4.0 20:00:53 15° NNE 20:00:53 15° NNE 20:02:03 10° NNE
USA 305 3.6 19:55:12 10° WNW 19:58:46 51° WSW 19:58:46 51° WSW
Cosmos 1980 3.7 19:56:20 10° SSW 20:01:59 78° WNW 20:07:41 10° NNE
Cosmos 1733 Rocket 4.0 19:59:23 10° SSW 20:03:34 46° WNW 20:07:48 10° N
COSMOS 2428 4.2 20:04:10 10° WSW 20:09:20 35° NW 20:14:33 10° NNE
Meteor 2-9 Rocket 4.1 20:10:29 69° NNE 20:10:29 69° NNE 20:15:08 10° NNE
Spot 2 Rocket 4.4 20:14:35 39° NNE 20:14:35 39° NNE 20:18:01 10° N
NOSS 3-2 (A) 3.8 20:07:22 10° WSW 20:13:04 60° NW 20:19:43 10° NE
USA 307 4.2 20:09:01 10° WNW 20:12:00 38° W 20:12:00 38° W
USA 306 4.2 20:10:17 10° WNW 20:13:13 36° W 20:13:13 36° W
Cosmos 1898 Rocket 4.2 20:13:48 10° NNW 20:18:49 47° WSW 20:19:30 44° SW
Cosmos 2369 Rocket 3.2 20:13:58 10° NNW 20:18:00 33° NNE 20:18:00 33° NNE
CENTAUR R/B 2.7 20:18:21 10° SW 20:24:23 73° NW 20:31:41 10° NE
ARIANE 5 R/B 4.5 20:39:17 26° NNW 20:39:17 26° NNW 20:41:18 10° NNW
Cosmos 2297 4.3 20:39:57 10° NNW 20:44:36 55° WNW 20:44:36 55° WNW
USA 281 4.2 20:54:08 34° NNE 20:54:08 34° NNE 20:58:52 10° NNW
NOSS 3-2 (C) 4.0 20:49:16 10° WSW 20:54:57 55° NW 20:55:55 50° N
Cosmos 1943 Rocket 3.1 20:53:05 10° NNW 20:56:57 45° NW 20:56:57 45° NW
Cosmos 2237 Rocket 3.6 20:56:21 10° WSW 21:01:31 35° NW 21:06:44 10° NNE
Resurs 01 Rocket 4.1 21:09:14 18° WNW 21:09:14 18° WNW 21:11:22 10° NW
USA 234 4.0 21:20:31 43° W 21:20:31 43° W 21:24:48 10° WSW
Terra 4.5 21:39:46 16° NNW 21:39:46 16° NNW 21:40:43 10° NNW
Cosmos 2369 Rocket 4.4 21:57:59 10° NW 21:59:48 20° NW 21:59:48 20° NW
CENTAUR R/B 4.3 22:10:35 10° W 22:16:23 31° NNW 22:23:04 10° NE
